Weather History for Hulett, WY

Change the Weather History Date:

Wednesday, October 2, 2013

  Actual Average (KEFC) Record (KEFC)
Temperature  
Mean Temperature 50 °F -  
Max Temperature 59 °F 71 °F 90 °F (1976)
Min Temperature 41 °F 38 °F 23 °F (1959)
Degree Days  
Heating Degree Days 15    
Moisture  
Dew Point 33 °F    
Average Humidity 56    
Maximum Humidity 76    
Minimum Humidity 36    
Precipitation  
Precipitation 0.00 in - - ()
Sea Level Pressure  
Sea Level Pressure 30.01 in    
Wind  
Wind Speed 5 mph (NNE)    
Max Wind Speed 12 mph    
Max Gust Speed 20 mph    
Visibility 10 miles    
Events Rain    
Averages and records for this station are not official NWS values.
T = Trace of Precipitation, MM = Missing Value Source: NWS Daily Summary

Daily Weather History Graph

Daily Weather History Graph

Search for Another Location

Airport:

Trip Planner

Search our weather history database for the weather conditions in past years. The results will help you decide how hot, cold, wet, or windy it might be!

Date:

Astronomy

Oct. 02, 2013 Rise Set
Actual Time 6:57 AM MDT 6:36 PM MDT
Civil Twilight 6:28 AM MDT 7:05 PM MDT
Nautical Twilight 5:54 AM MDT 7:39 PM MDT
Astronomical Twilight 5:20 AM MDT 8:13 PM MDT
Moon 4:28 AM MDT (10/2) 5:17 PM MDT (10/2)
Length of Visible Light 12h 36m
Length of Day
11h 38m
Waning Crescent, 6% of the Moon is Illuminated
Oct 2
Waning Crescent
Oct 4
New
Oct 11
First Quarter
Oct 18
Full
Oct 26
Last Quarter

Hourly Weather History & Observations

Time (MDT) Temp. Windchill Dew Point Humidity Pressure Visibility Wind Dir Wind Speed Gust Speed Precip Events Conditions
12:15 AM 48.2 °F - 33.8 °F 58% 29.87 in 10.0 mi Calm Calm - N/A   Clear
12:35 AM 46.4 °F - 33.8 °F 62% 29.87 in 10.0 mi North - - N/A   Clear
12:55 AM 44.6 °F - 33.8 °F 66% 29.87 in 10.0 mi North - - N/A   Clear
1:15 AM 44.6 °F 41.4 °F 35.6 °F 71% 29.86 in 10.0 mi South 5.8 mph - N/A   Clear
1:35 AM 44.6 °F 43.1 °F 33.8 °F 66% 29.88 in 10.0 mi NNW 3.5 mph - N/A   Clear
1:55 AM 41.0 °F - 33.8 °F 76% 29.89 in 10.0 mi Calm Calm - N/A   Clear
2:15 AM 41.0 °F 37.1 °F 33.8 °F 76% 29.90 in 10.0 mi East 5.8 mph - N/A   Clear
2:35 AM 42.8 °F - 33.8 °F 70% 29.90 in 10.0 mi North - - N/A   Clear
2:55 AM 41.0 °F - 33.8 °F 76% 29.90 in 10.0 mi North - - N/A   Clear
3:15 AM 42.8 °F 41.1 °F 33.8 °F 70% 29.91 in 10.0 mi ENE 3.5 mph - N/A   Clear
3:35 AM 42.8 °F - 32.0 °F 66% 29.91 in 10.0 mi Calm Calm - N/A   Clear
3:55 AM 44.6 °F - 32.0 °F 61% 29.92 in 10.0 mi Calm Calm - N/A   Clear
4:15 AM 42.8 °F - 32.0 °F 66% 29.94 in 10.0 mi Calm Calm - N/A   Clear
4:35 AM 42.8 °F - 32.0 °F 66% 29.94 in 10.0 mi Calm Calm - N/A   Clear
4:55 AM 42.8 °F - 32.0 °F 66% 29.95 in 10.0 mi Calm Calm - N/A   Clear
5:15 AM 42.8 °F - 32.0 °F 66% 29.97 in 10.0 mi Calm Calm - N/A   Clear
5:35 AM 42.8 °F - 32.0 °F 66% 29.99 in 10.0 mi Calm Calm - N/A   Clear
5:55 AM 41.0 °F 39.0 °F 32.0 °F 70% 30.01 in 10.0 mi West 3.5 mph - N/A   Clear
6:15 AM 42.8 °F - 32.0 °F 66% 30.03 in 10.0 mi Calm Calm - N/A   Clear
6:35 AM 41.0 °F 39.0 °F 32.0 °F 70% 30.03 in 10.0 mi North 3.5 mph - N/A   Clear
6:55 AM 41.0 °F 36.4 °F 32.0 °F 70% 30.04 in 10.0 mi North 6.9 mph - N/A   Clear
7:15 AM 41.0 °F 37.1 °F 32.0 °F 70% 30.05 in 10.0 mi North 5.8 mph - N/A   Clear
7:35 AM 41.0 °F 39.0 °F 32.0 °F 70% 30.07 in 10.0 mi NE 3.5 mph - N/A   Clear
7:55 AM 42.8 °F 41.1 °F 30.2 °F 61% 30.07 in 10.0 mi NE 3.5 mph - N/A   Clear
8:15 AM 42.8 °F 39.3 °F 32.0 °F 66% 30.08 in 10.0 mi North 5.8 mph - N/A   Clear
8:35 AM 44.6 °F 40.7 °F 32.0 °F 61% 30.09 in 10.0 mi NNE 6.9 mph - N/A   Clear
8:55 AM 44.6 °F 41.4 °F 32.0 °F 61% 30.10 in 10.0 mi North 5.8 mph - N/A   Clear
9:15 AM 44.6 °F 40.7 °F 32.0 °F 61% 30.11 in 10.0 mi NNE 6.9 mph - N/A   Clear
9:35 AM 46.4 °F 41.1 °F 32.0 °F 57% 30.10 in 10.0 mi North 11.5 mph - N/A   Clear
9:55 AM 48.2 °F - 32.0 °F 54% 30.10 in 10.0 mi NNE 10.4 mph 19.6 mph N/A   Clear
10:15 AM 50.0 °F - 32.0 °F 50% 30.10 in 10.0 mi North 10.4 mph - N/A   Clear
10:35 AM 50.0 °F - 32.0 °F 50% 30.10 in 10.0 mi NNE 11.5 mph 19.6 mph N/A   Clear
10:55 AM 51.8 °F - 33.8 °F 50% 30.10 in 10.0 mi North 10.4 mph - N/A   Clear
11:15 AM 51.8 °F - 33.8 °F 50% 30.10 in 10.0 mi North 11.5 mph 17.3 mph N/A   Clear
11:35 AM 53.6 °F - 33.8 °F 47% 30.10 in 10.0 mi North 9.2 mph - N/A   Clear
11:55 AM 53.6 °F - 33.8 °F 47% 30.09 in 10.0 mi North 9.2 mph - N/A   Clear
12:15 PM 53.6 °F - 33.8 °F 47% 30.08 in 10.0 mi North 11.5 mph 16.1 mph N/A   Clear
12:35 PM 55.4 °F - 33.8 °F 44% 30.08 in 10.0 mi North 11.5 mph 18.4 mph N/A   Clear
12:55 PM 53.6 °F - 33.8 °F 47% 30.08 in 10.0 mi North 9.2 mph - N/A   Clear
1:15 PM 55.4 °F - 33.8 °F 44% 30.07 in 10.0 mi North 8.1 mph - N/A   Clear
1:35 PM 55.4 °F - 33.8 °F 44% 30.06 in 10.0 mi NE 6.9 mph - N/A   Clear
1:55 PM 55.4 °F - 32.0 °F 41% 30.05 in 10.0 mi NNE 8.1 mph - N/A   Clear
2:15 PM 57.2 °F - 32.0 °F 38% 30.04 in 10.0 mi North 6.9 mph - N/A   Clear
2:35 PM 57.2 °F - 32.0 °F 38% 30.04 in 10.0 mi NE 8.1 mph - N/A   Clear
2:55 PM 59.0 °F - 32.0 °F 36% 30.03 in 10.0 mi NNE 8.1 mph - N/A   Clear
3:15 PM 59.0 °F - 33.8 °F 39% 30.03 in 10.0 mi NE 8.1 mph - N/A   Clear
3:35 PM 59.0 °F - 32.0 °F 36% 30.02 in 10.0 mi NE 11.5 mph - N/A   Clear
3:55 PM 57.2 °F - 32.0 °F 38% 30.02 in 10.0 mi North - - N/A   Clear
4:15 PM 57.2 °F - 32.0 °F 38% 30.03 in 10.0 mi NE 6.9 mph - N/A   Clear
4:35 PM 55.4 °F - 33.8 °F 44% 30.03 in 10.0 mi NE 9.2 mph - N/A   Clear
4:55 PM 55.4 °F - 33.8 °F 44% 30.02 in 10.0 mi NNE 6.9 mph - N/A   Mostly Cloudy
5:15 PM 55.4 °F - 33.8 °F 44% 30.01 in 10.0 mi North - - N/A   Overcast
5:35 PM 55.4 °F - 33.8 °F 44% 30.02 in 10.0 mi NE 6.9 mph - N/A   Overcast
5:55 PM 53.6 °F - 33.8 °F 47% 30.02 in 10.0 mi NNE 5.8 mph - N/A   Overcast
6:15 PM 53.6 °F - 33.8 °F 47% 30.02 in 10.0 mi NE 6.9 mph - N/A   Overcast
6:35 PM 53.6 °F - 35.6 °F 51% 30.02 in 10.0 mi NE 6.9 mph - N/A   Overcast
6:55 PM 53.6 °F - 35.6 °F 51% 30.02 in 10.0 mi NE 8.1 mph - N/A   Overcast
7:15 PM 51.8 °F - 35.6 °F 54% 30.02 in 10.0 mi NE 5.8 mph - N/A   Overcast
7:35 PM 51.8 °F - 35.6 °F 54% 30.03 in 10.0 mi North - - N/A   Overcast
7:55 PM 51.8 °F - 35.6 °F 54% 30.02 in 10.0 mi NE 5.8 mph - N/A   Overcast
8:15 PM 51.8 °F - 33.8 °F 50% 30.02 in 10.0 mi ENE 5.8 mph - N/A   Overcast
8:35 PM 51.8 °F - 33.8 °F 50% 30.01 in 10.0 mi ENE 9.2 mph - N/A   Overcast
8:55 PM 50.0 °F - 33.8 °F 54% 30.01 in 10.0 mi NE 5.8 mph - N/A   Overcast
9:15 PM 50.0 °F - 33.8 °F 54% 30.01 in 10.0 mi ENE 10.4 mph - N/A   Overcast
9:35 PM 50.0 °F - 32.0 °F 50% 29.99 in 10.0 mi ENE 9.2 mph - N/A   Overcast
9:55 PM 50.0 °F - 32.0 °F 50% 29.99 in 10.0 mi ENE 10.4 mph - N/A   Overcast
10:15 PM 50.0 °F - 32.0 °F 50% 30.01 in 10.0 mi ENE 5.8 mph - N/A   Overcast
10:35 PM 50.0 °F - 32.0 °F 50% 30.00 in 10.0 mi ENE 8.1 mph - N/A   Overcast
10:55 PM 50.0 °F - 32.0 °F 50% 29.97 in 10.0 mi NE 10.4 mph - N/A   Overcast
11:15 PM 46.4 °F 43.5 °F 35.6 °F 66% 29.99 in 10.0 mi ENE 5.8 mph - N/A Rain Light Rain
11:35 PM 46.4 °F - 35.6 °F 66% 29.99 in 10.0 mi Calm Calm - N/A Rain Light Rain
11:55 PM 44.6 °F 42.2 °F 37.4 °F 76% 30.01 in 10.0 mi NNE 4.6 mph - N/A Rain Light Rain